Total_Precipitation_Accumulation
0.00 0.01 0.02 0.02 0.02 0.02 0.05 0.06 0.10 0.13 0.11 0.13 0.29 0.47 0.47 0.57 0.82 1.03 1.30 1.56 1.81 2.07 2.36 2.58 2.58 2.71 2.78 3.04 3.15 3.16 3.56 3.64 3.49 3.22 2.87 2.69 2.57 2.48 2.32 2.16 2.00 1.97 1.98 2.07
0.01 0.03 0.01 0.01 0.02 0.03 0.05 0.08 0.12 0.13 0.11 0.12 0.26 0.43 0.50 0.75 1.03 1.07 1.15 1.29 1.49 1.85 2.12 2.25 2.25 2.26 2.56 2.95 3.17 3.06 2.90 2.98 2.99 2.89 2.79 2.74 2.77 2.49 2.24 2.11 1.92 1.80 1.85 1.92
0.03 0.03 0.01 0.01 0.02 0.02 0.04 0.06 0.09 0.14 0.14 0.17 0.26 0.53 0.67 0.87 0.96 1.03 1.12 1.22 1.37 1.65 1.89 2.04 1.99 1.98 2.16 2.24 2.31 2.29 2.26 2.15 2.11 2.15 2.26 2.32 2.37 2.15 1.96 1.88 1.80 1.68 1.63 1.59
0.03 0.02 0.03 0.03 0.04 0.04 0.05 0.06 0.05 0.06 0.14 0.23 0.34 0.82 1.00 0.92 0.95 1.08 1.10 1.12 1.35 1.63 1.55 1.56 1.61 1.66 1.82 1.88 1.84 1.73 1.71 1.71 1.69 1.78 1.89 1.86 1.83 1.73 1.69 1.68 1.59 1.53 1.47 1.43
0.05 0.04 0.03 0.05 0.05 0.04 0.05 0.04 0.05 0.08 0.16 0.26 0.34 0.64 0.94 1.15 1.21 1.05 0.99 0.95 1.14 1.24 1.11 1.10 1.16 1.18 1.23 1.26 1.35 1.36 1.42 1.43 1.44 1.46 1.50 1.52 1.48 1.47 1.46 1.39 1.33 1.27 1.23 1.29
0.05 0.05 0.04 0.04 0.03 0.04 0.04 0.06 0.11 0.22 0.38 0.58 0.47 0.56 0.90 1.19 1.33 1.04 0.95 0.90 0.98 0.95 0.91 0.97 0.99 0.94 0.96 1.03 1.12 1.19 1.26 1.29 1.28 1.27 1.28 1.28 1.27 1.25 1.22 1.18 1.19 1.15 1.10 1.04
0.12 0.12 0.09 0.06 0.05 0.05 0.05 0.12 0.42 0.75 1.00 0.99 0.61 0.64 0.96 0.97 0.95 0.89 0.85 0.91 0.94 0.85 0.76 0.73 0.74 0.78 0.84 0.89 0.89 0.90 0.97 1.01 0.95 0.92 0.97 0.98 0.97 0.95 0.95 0.94 0.90 0.84 0.76 0.74
0.17 0.24 0.14 0.08 0.08 0.08 0.09 0.14 0.47 0.68 0.69 0.75 0.62 0.83 1.18 0.94 0.86 0.78 0.79 0.89 0.85 0.70 0.60 0.57 0.56 0.58 0.63 0.64 0.63 0.63 0.70 0.78 0.80 0.77 0.77 0.68 0.62 0.59 0.59 0.67 0.66 0.62 0.57 0.56
0.10 0.10 0.08 0.07 0.08 0.10 0.14 0.16 0.22 0.41 0.42 0.52 0.64 0.86 1.02 0.83 0.78 0.81 0.89 0.93 0.85 0.65 0.50 0.44 0.42 0.41 0.41 0.42 0.45 0.52 0.58 0.63 0.68 0.67 0.61 0.54 0.48 0.46 0.44 0.48 0.54 0.54 0.58 0.54
0.06 0.04 0.06 0.06 0.08 0.10 0.13 0.14 0.17 0.32 0.44 0.52 0.58 0.85 1.05 1.04 0.97 0.88 0.92 0.80 0.58 0.44 0.34 0.30 0.26 0.25 0.26 0.28 0.34 0.42 0.47 0.47 0.48 0.49 0.48 0.40 0.39 0.39 0.40 0.41 0.42 0.44 0.47 0.50
0.04 0.03 0.05 0.08 0.10 0.12 0.15 0.18 0.25 0.36 0.35 0.49 0.67 0.78 0.72 0.73 0.81 0.87 0.79 0.61 0.40 0.29 0.21 0.20 0.20 0.21 0.22 0.22 0.28 0.37 0.43 0.47 0.47 0.46 0.45 0.39 0.33 0.30 0.31 0.32 0.33 0.39 0.41 0.44
0.05 0.04 0.07 0.13 0.15 0.14 0.13 0.15 0.23 0.37 0.34 0.37 0.51 0.56 0.36 0.36 0.43 0.46 0.43 0.34 0.27 0.22 0.19 0.21 0.24 0.24 0.22 0.24 0.29 0.37 0.43 0.48 0.51 0.52 0.53 0.49 0.42 0.38 0.35 0.32 0.30 0.31 0.35 0.38
0.08 0.07 0.12 0.33 0.45 0.27 0.15 0.11 0.13 0.17 0.19 0.22 0.35 0.40 0.27 0.28 0.34 0.42 0.49 0.49 0.42 0.33 0.23 0.19 0.22 0.24 0.25 0.29 0.34 0.45 0.51 0.52 0.54 0.59 0.67 0.66 0.53 0.48 0.47 0.40 0.34 0.32 0.32 0.32
0.09 0.11 0.13 0.33 0.43 0.30 0.22 0.16 0.11 0.15 0.24 0.21 0.21 0.28 0.28 0.29 0.34 0.41 0.44 0.40 0.32 0.26 0.20 0.18 0.20 0.24 0.27 0.30 0.30 0.33 0.37 0.39 0.45 0.47 0.56 0.67 0.62 0.51 0.39 0.31 0.32 0.34 0.33 0.35
0.07 0.08 0.07 0.10 0.16 0.19 0.23 0.19 0.14 0.11 0.16 0.27 0.23 0.22 0.26 0.26 0.23 0.26 0.26 0.22 0.18 0.17 0.15 0.16 0.18 0.22 0.26 0.25 0.22 0.20 0.18 0.18 0.24 0.28 0.35 0.45 0.40 0.34 0.31 0.28 0.22 0.20 0.24 0.30
0.11 0.10 0.07 0.06 0.10 0.13 0.16 0.19 0.13 0.09 0.08 0.11 0.17 0.24 0.26 0.26 0.24 0.22 0.19 0.17 0.16 0.16 0.14 0.13 0.15 0.17 0.19 0.16 0.11 0.08 0.09 0.12 0.19 0.25 0.30 0.37 0.36 0.29 0.23 0.20 0.15 0.15 0.21 0.28
0.23 0.18 0.15 0.10 0.09 0.13 0.18 0.15 0.11 0.07 0.05 0.06 0.18 0.30 0.23 0.23 0.22 0.19 0.17 0.15 0.12 0.10 0.08 0.08 0.07 0.06 0.05 0.05 0.05 0.05 0.06 0.08 0.16 0.26 0.33 0.38 0.42 0.42 0.31 0.19 0.16 0.19 0.26 0.34
0.26 0.26 0.20 0.15 0.20 0.31 0.19 0.10 0.09 0.09 0.06 0.07 0.11 0.15 0.13 0.14 0.10 0.07 0.07 0.08 0.05 0.04 0.04 0.04 0.03 0.02 0.03 0.03 0.05 0.08 0.07 0.09 0.15 0.25 0.31 0.34 0.39 0.40 0.37 0.32 0.31 0.34 0.42 0.48
0.20 0.28 0.25 0.21 0.26 0.22 0.16 0.13 0.12 0.13 0.11 0.09 0.11 0.08 0.07 0.08 0.07 0.08 0.05 0.08 0.06 0.05 0.05 0.04 0.04 0.04 0.05 0.05 0.08 0.13 0.14 0.17 0.22 0.31 0.41 0.41 0.44 0.44 0.40 0.39 0.42 0.47 0.52 0.53
0.22 0.29 0.34 0.31 0.35 0.32 0.24 0.22 0.19 0.18 0.25 0.14 0.12 0.09 0.06 0.06 0.14 0.15 0.07 0.05 0.05 0.06 0.09 0.08 0.06 0.07 0.09 0.10 0.13 0.19 0.25 0.31 0.39 0.48 0.54 0.53 0.57 0.61 0.56 0.57 0.58 0.57 0.60 0.55
0.42 0.39 0.37 0.38 0.41 0.35 0.29 0.29 0.23 0.37 0.44 0.18 0.13 0.10 0.08 0.09 0.11 0.09 0.07 0.04 0.04 0.05 0.06 0.07 0.10 0.09 0.11 0.13 0.18 0.29 0.35 0.39 0.43 0.45 0.53 0.59 0.66 0.74 0.78 0.82 0.78 0.74 0.70 0.67
0.46 0.50 0.51 0.54 0.59 0.48 0.29 0.30 0.41 0.47 0.33 0.23 0.17 0.12 0.09 0.09 0.08 0.06 0.05 0.04 0.04 0.04 0.06 0.09 0.11 0.10 0.13 0.16 0.24 0.33 0.37 0.39 0.42 0.47 0.56 0.63 0.70 0.70 0.79 1.03 1.03 1.03 0.98 0.85
0.43 0.50 0.50 0.51 0.51 0.37 0.31 0.37 0.41 0.39 0.36 0.27 0.21 0.13 0.09 0.08 0.07 0.07 0.07 0.07 0.06 0.06 0.07 0.10 0.13 0.15 0.18 0.22 0.34 0.47 0.44 0.44 0.49 0.55 0.63 0.68 0.68 0.76 0.89 1.03 1.08 1.12 1.09 0.95
0.36 0.35 0.40 0.46 0.45 0.44 0.35 0.31 0.34 0.28 0.21 0.18 0.15 0.13 0.11 0.11 0.11 0.11 0.11 0.11 0.10 0.10 0.11 0.14 0.19 0.25 0.33 0.38 0.46 0.58 0.55 0.57 0.63 0.65 0.67 0.70 0.75 0.78 0.86 1.02 1.03 1.03 1.00 0.98
0.25 0.33 0.45 0.52 0.47 0.47 0.41 0.37 0.36 0.26 0.20 0.15 0.12 0.12 0.13 0.13 0.12 0.12 0.12 0.15 0.15 0.15 0.15 0.19 0.28 0.37 0.46 0.54 0.60 0.65 0.68 0.74 0.79 0.76 0.73 0.77 0.82 0.87 0.93 0.98 1.03 0.98 0.93 0.83
0.17 0.32 0.49 0.53 0.51 0.61 0.55 0.37 0.29 0.23 0.19 0.14 0.13 0.12 0.12 0.13 0.13 0.13 0.13 0.13 0.15 0.18 0.19 0.22 0.29 0.38 0.48 0.57 0.66 0.72 0.83 0.94 1.01 1.00 0.89 0.89 0.91 0.95 1.01 1.00 0.90 0.75 0.67 0.53